| time (UTC) | temp C | wind direction | speed KPH | gust KPH | rain 1hr cm | rain 24hr cm | rain mn cm | humidity % | barometer mb |
| 20260831055836 | 0 | 77 | 0.0 | 0.0 | 0.00 | 0.00 | 0.00 | 94 | 1022.6 |
| 20260831052850 | -1 | 77 | 0.0 | 0.0 | 0.00 | 0.00 | 0.00 | 95 | 1022.5 |
| 20260831051339 | -1 | 77 | 0.0 | 0.0 | 0.00 | 0.00 | 0.00 | 95 | 1022.5 |
| 20260831044344 | -1 | 77 | 0.0 | 0.0 | 0.00 | 0.00 | 0.00 | 95 | 1022.4 |
| 20260831042837 | -1 | 77 | 0.0 | 0.0 | 0.00 | 0.00 | 0.00 | 95 | 1022.4 |
| 20260831041330 | -1 | 77 | 0.0 | 0.0 | 0.00 | 0.00 | 0.00 | 95 | 1022.3 |
| 20260831034341 | -1 | 77 | 0.0 | 0.0 | 0.00 | 0.00 | 0.00 | 95 | 1022.4 |
| 20260831032832 | -1 | 77 | 0.0 | 0.0 | 0.00 | 0.00 | 0.00 | 95 | 1022.4 |
| 20260831025843 | -1 | 77 | 0.0 | 0.0 | 0.00 | 0.00 | 0.00 | 95 | 1022.9 |
| 20260831024336 | -1 | 77 | 0.0 | 0.0 | 0.00 | 0.00 | 0.00 | 94 | 1022.8 |
| 20260831021341 | -1 | 77 | 0.0 | 0.0 | 0.00 | 0.00 | 0.00 | 95 | 1022.8 |
| 20260831015833 | -1 | 77 | 0.0 | 0.0 | 0.00 | 0.00 | 0.00 | 94 | 1022.9 |
| 20260831012841 | -1 | 77 | 0.0 | 0.0 | 0.00 | 0.00 | 0.00 | 95 | 1023.0 |
| 20260831005847 | -1 | 77 | 0.0 | 0.0 | 0.00 | 0.00 | 0.00 | 94 | 1023.0 |
| 20260831004339 | -1 | 77 | 0.0 | 0.0 | 0.00 | 0.00 | 0.00 | 94 | 1023.0 |
| 20260831001333 | 0 | 77 | 0.0 | 0.0 | 0.00 | 0.00 | 0.00 | 94 | 1023.2 |
| 20260830234341 | 0 | 77 | 0.0 | 0.0 | 0.00 | 0.00 | 0.00 | 94 | 1023.1 |
| 20260830231334 | 0 | 77 | 0.0 | 0.0 | 0.00 | 0.00 | 0.00 | 94 | 1023.1 |
| 20260830225827 | 0 | 77 | 0.0 | 0.0 | 0.00 | 0.00 | 0.00 | 94 | 1023.4 |
| 20260830222836 | 1 | 77 | 0.0 | 0.0 | 0.00 | 0.00 | 0.00 | 94 | 1023.3 |
| 20260830215850 | 1 | 77 | 0.0 | 0.0 | 0.00 | 0.00 | 0.00 | 94 | 1023.3 |
| 20260830212846 | 2 | 77 | 0.0 | 0.0 | 0.00 | 0.00 | 0.00 | 94 | 1023.2 |
| 20260830211340 | 2 | 77 | 0.0 | 0.0 | 0.00 | 0.00 | 0.00 | 94 | 1023.1 |
| 20260830205838 | 2 | 77 | 0.0 | 0.0 | 0.00 | 0.00 | 0.00 | 94 | 1023.0 |
| 20260830202847 | 3 | 77 | 0.0 | 0.0 | 0.00 | 0.00 | 0.00 | 93 | 1022.6 |
| 20260830201340 | 3 | 77 | 0.0 | 0.0 | 0.00 | 0.00 | 0.00 | 92 | 1022.5 |
| 20260830194346 | 5 | 77 | 0.0 | 0.0 | 0.00 | 0.00 | 0.00 | 91 | 1022.3 |
| 20260830192842 | 6 | 77 | 0.0 | 0.0 | 0.00 | 0.00 | 0.00 | 92 | 1022.2 |
| 20260830185846 | 7 | 77 | 0.0 | 0.0 | 0.00 | 0.00 | 0.00 | 93 | 1022.1 |
| 20260830184340 | 8 | 77 | 0.0 | 0.0 | 0.00 | 0.00 | 0.00 | 93 | 1021.8 |
| 20260830182836 | 8 | 77 | 0.0 | 0.0 | 0.00 | 0.00 | 0.00 | 89 | 1021.8 |
| 20260830175842 | 11 | 77 | 0.0 | 0.0 | 0.00 | 0.00 | 0.00 | 88 | 1021.2 |
| 20260830172848 | 12 | 93 | 0.0 | 3.2 | 0.00 | 0.00 | 0.00 | 90 | 1021.1 |
| 20260830171347 | 13 | 65 | 0.0 | 1.6 | 0.00 | 0.00 | 0.00 | 87 | 1021.1 |
| 20260830165832 | 14 | 64 | 0.0 | 1.6 | 0.00 | 0.00 | 0.00 | 84 | 1021.0 |
| 20260830162837 | 15 | 342 | 0.0 | 8.0 | 0.00 | 0.00 | 0.00 | 82 | 1021.2 |
| 20260830155843 | 16 | 57 | 0.0 | 9.7 | 0.00 | 0.00 | 0.00 | 80 | 1021.3 |
| 20260830154337 | 16 | 65 | 0.0 | 8.0 | 0.00 | 0.00 | 0.00 | 80 | 1021.3 |
| 20260830151347 | 16 | 82 | 4.8 | 14.5 | 0.00 | 0.00 | 0.00 | 78 | 1021.2 |
| 20260830145839 | 17 | 59 | 4.8 | 11.3 | 0.00 | 0.00 | 0.00 | 77 | 1021.3 |
| 20260830141334 | 17 | 48 | 1.6 | 9.7 | 0.00 | 0.00 | 0.00 | 77 | 1021.3 |
| 20260830134348 | 17 | 347 | 1.6 | 11.3 | 0.00 | 0.00 | 0.00 | 80 | 1021.7 |
| 20260830132847 | 17 | 335 | 0.0 | 11.3 | 0.00 | 0.00 | 0.00 | 77 | 1021.7 |
| 20260830131334 | 17 | 83 | 1.6 | 11.3 | 0.00 | 0.00 | 0.00 | 79 | 1021.8 |
| 20260830124340 | 17 | 42 | 1.6 | 9.7 | 0.00 | 0.00 | 0.00 | 77 | 1021.9 |
| 20260830122838 | 17 | 348 | 0.0 | 8.0 | 0.00 | 0.00 | 0.00 | 77 | 1021.9 |
| 20260830115843 | 17 | 305 | 1.6 | 11.3 | 0.00 | 0.00 | 0.00 | 76 | 1022.0 |
| 20260830112848 | 16 | 169 | 1.6 | 11.3 | 0.00 | 0.00 | 0.00 | 80 | 1021.9 |
| 20260830111340 | 17 | 30 | 0.0 | 8.0 | 0.00 | 0.00 | 0.00 | 78 | 1022.0 |
| 20260830105833 | 17 | 323 | 0.0 | 6.4 | 0.00 | 0.00 | 0.00 | 77 | 1022.0 |
| 20260830102838 | 17 | 298 | 0.0 | 11.3 | 0.00 | 0.00 | 0.00 | 76 | 1022.2 |
| 20260830095851 | 17 | 273 | 0.0 | 14.5 | 0.00 | 0.00 | 0.00 | 75 | 1022.3 |
| 20260830094337 | 17 | 291 | 1.6 | 8.0 | 0.00 | 0.00 | 0.00 | 74 | 1022.3 |
| 20260830091345 | 17 | 5 | 0.0 | 9.7 | 0.00 | 0.00 | 0.00 | 77 | 1022.4 |
| 20260830085841 | 16 | 119 | 1.6 | 9.7 | 0.00 | 0.00 | 0.00 | 77 | 1022.4 |
| 20260830084333 | 16 | 79 | 1.6 | 8.0 | 0.00 | 0.00 | 0.00 | 81 | 1022.4 |
| 20260830081340 | 16 | 37 | 0.0 | 9.7 | 0.00 | 0.00 | 0.00 | 79 | 1022.3 |
| 20260830075834 | 16 | 291 | 1.6 | 6.4 | 0.00 | 0.00 | 0.00 | 79 | 1022.2 |
| 20260830074328 | 17 | 117 | 0.0 | 3.2 | 0.00 | 0.00 | 0.00 | 79 | 1022.2 |
| 20260830071339 | 14 | 182 | 0.0 | 1.6 | 0.00 | 0.00 | 0.00 | 94 | 1022.2 |
| 20260830065833 | 12 | 182 | 0.0 | 1.6 | 0.00 | 0.00 | 0.00 | 94 | 1022.4 |
| 20260830062843 | 3 | 282 | 0.0 | 0.0 | 0.00 | 0.00 | 0.00 | 94 | 1022.7 |
| 20260830061337 | 0 | 282 | 0.0 | 0.0 | 0.00 | 0.00 | 0.00 | 94 | 1022.7 |